Location: Asheville, NC
(35.6000°N, 82.5500°W)
Time: 10:29:12
(UTC-04:00)

Vanguard 1 Rocket - Pass Details

Date: 17 March 2018
Orbit: 653 x 4224 km, 34.3° (Epoch: 18 June)

Event Time Altitude Azimuth Distance (km) Brightness Sun altitude
Rises 03:25:29 0° 273° (W) 7,117 - -47.7°
Reaches altitude 10° 03:33:03 10° 256° (WSW) 6,690 - -46.6°
Maximum altitude 03:44:39 16° 225° (SW) 6,701 - -44.9°
Drops below altitude 10° 03:57:38 10° 194° (SSW) 7,403 - -42.9°
Exits shadow 04:04:03 - 182° (S) 7,901 11.9 -41.9°
Sets 04:07:25 0° 176° (S) 8,187 12.0 -41.4°
